�������l�o���
Date,Time,MP-1(��Sv/h),MP-2(��Sv/h),MP-3(��Sv/h),MP-4(��Sv/h),MP-5(��Sv/h),MP-6(��Sv/h),MP-7(��Sv/h),MP-8(��Sv/h),����,����(m/s),���J
2020/06/21,00:00,0.689,0.983,0.635,1.207,0.866,0.396,0.687,0.642,�k�k��,4.0,��
2020/06/21,00:10,0.689,0.981,0.635,1.205,0.865,0.396,0.687,0.641,�k�k��,4.4,��
2020/06/21,00:20,0.689,0.982,0.637,1.204,0.864,0.395,0.688,0.642,�k�k��,2.3,��
2020/06/21,00:30,0.688,0.981,0.635,1.205,0.863,0.395,0.687,0.641,��,0.9,��
2020/06/21,00:40,0.689,0.981,0.635,1.207,0.867,0.395,0.688,0.642,��쓌,1.7,��
2020/06/21,00:50,0.689,0.980,0.636,1.205,0.864,0.395,0.688,0.643,���k��,0.6,��
2020/06/21,01:00,0.690,0.980,0.637,1.202,0.865,0.394,0.688,0.644,-,CALM,��
2020/06/21,01:10,0.689,0.984,0.635,1.204,0.864,0.395,0.688,0.641,-,CALM,��
2020/06/21,01:20,0.688,0.982,0.635,1.202,0.865,0.395,0.689,0.641,-,CALM,��
2020/06/21,01:30,0.689,0.979,0.634,1.205,0.865,0.395,0.688,0.644,��,1.4,��
2020/06/21,01:40,0.691,0.980,0.633,1.205,0.866,0.395,0.687,0.641,-,CALM,��
2020/06/21,01:50,0.691,0.983,0.636,1.206,0.865,0.395,0.688,0.642,�k,1.1,��
2020/06/21,02:00,0.688,0.982,0.634,1.203,0.867,0.397,0.688,0.642,�k,1.1,��
2020/06/21,02:10,0.690,0.981,0.635,1.202,0.866,0.397,0.689,0.642,�k��,1.2,��
2020/06/21,02:20,0.689,0.979,0.634,1.206,0.865,0.396,0.688,0.641,�k�k��,1.2,��
2020/06/21,02:30,0.691,0.980,0.636,1.201,0.865,0.396,0.690,0.642,�k��,1.5,��
2020/06/21,02:40,0.689,0.982,0.635,1.204,0.865,0.395,0.690,0.642,�k��,1.7,��
2020/06/21,02:50,0.689,0.981,0.637,1.204,0.867,0.396,0.687,0.642,�k�k��,1.7,��
2020/06/21,03:00,0.691,0.981,0.635,1.203,0.866,0.395,0.687,0.641,�k�k��,1.7,��
2020/06/21,03:10,0.690,0.982,0.635,1.206,0.864,0.395,0.689,0.642,�k,2.2,��
2020/06/21,03:20,0.690,0.979,0.635,1.208,0.865,0.396,0.688,0.643,�k�k��,3.0,��
2020/06/21,03:30,0.691,0.982,0.635,1.203,0.865,0.396,0.688,0.643,�k�k��,2.8,��
2020/06/21,03:40,0.689,0.979,0.634,1.206,0.867,0.395,0.688,0.641,�k�k��,2.6,��
2020/06/21,03:50,0.689,0.982,0.634,1.203,0.866,0.394,0.688,0.643,�k�k��,3.2,��
2020/06/21,04:00,0.691,0.984,0.636,1.203,0.866,0.396,0.688,0.642,�k�k��,3.4,��
2020/06/21,04:10,0.689,0.980,0.636,1.206,0.866,0.396,0.688,0.642,�k�k��,3.4,��
2020/06/21,04:20,0.690,0.983,0.634,1.205,0.868,0.396,0.689,0.642,�k�k��,3.1,��
2020/06/21,04:30,0.688,0.980,0.636,1.206,0.866,0.396,0.687,0.643,�k��,2.9,��
2020/06/21,04:40,0.690,0.982,0.635,1.205,0.866,0.395,0.688,0.643,�k��,3.0,��
2020/06/21,04:50,0.689,0.981,0.635,1.203,0.865,0.395,0.688,0.642,�k��,2.6,��
2020/06/21,05:00,0.690,0.982,0.636,1.207,0.865,0.394,0.687,0.644,�k��,2.9,��
2020/06/21,05:10,0.690,0.980,0.634,1.205,0.866,0.394,0.688,0.643,�k��,2.5,��
2020/06/21,05:20,0.690,0.979,0.635,1.206,0.865,0.396,0.687,0.643,���k��,2.0,��
2020/06/21,05:30,0.689,0.982,0.635,1.206,0.866,0.393,0.687,0.642,�k��,2.6,��
2020/06/21,05:40,0.690,0.981,0.635,1.207,0.865,0.396,0.686,0.641,�k��,2.6,��
2020/06/21,05:50,0.691,0.980,0.637,1.207,0.866,0.395,0.688,0.642,�k�k��,2.3,��
2020/06/21,06:00,0.691,0.982,0.635,1.206,0.867,0.396,0.690,0.642,�k�k��,2.8,��
2020/06/21,06:10,0.692,0.980,0.637,1.205,0.865,0.395,0.687,0.643,�k��,2.6,��
2020/06/21,06:20,0.690,0.982,0.636,1.206,0.865,0.393,0.687,0.642,�k�k��,2.2,��
2020/06/21,06:30,0.690,0.983,0.635,1.207,0.864,0.396,0.688,0.642,�k,2.0,��
2020/06/21,06:40,0.689,0.979,0.635,1.206,0.865,0.395,0.688,0.642,�k�k��,2.6,��
2020/06/21,06:50,0.690,0.981,0.636,1.206,0.865,0.394,0.690,0.643,�k,2.6,��
2020/06/21,07:00,0.690,0.979,0.637,1.207,0.864,0.394,0.688,0.642,�k��,2.6,��
2020/06/21,07:10,0.690,0.977,0.636,1.207,0.863,0.393,0.687,0.644,�k�k��,3.5,��
2020/06/21,07:20,0.689,0.976,0.636,1.207,0.866,0.392,0.686,0.643,�k�k��,3.6,��
2020/06/21,07:30,0.689,0.980,0.634,1.207,0.865,0.393,0.687,0.643,�k�k��,4.3,��
2020/06/21,07:40,0.690,0.980,0.636,1.208,0.864,0.393,0.687,0.644,�k�k��,4.4,��
2020/06/21,07:50,0.688,0.982,0.635,1.208,0.866,0.393,0.687,0.642,�k�k��,3.8,��
2020/06/21,08:00,0.690,0.980,0.635,1.205,0.867,0.394,0.685,0.642,�k�k��,4.1,��
2020/06/21,08:10,0.692,0.983,0.634,1.208,0.867,0.393,0.689,0.641,�k��,3.5,��
2020/06/21,08:20,0.690,0.983,0.636,1.204,0.866,0.394,0.686,0.643,�k�k��,3.6,��
2020/06/21,08:30,0.690,0.985,0.636,1.208,0.866,0.393,0.686,0.640,�k�k��,3.2,��
2020/06/21,08:40,0.689,0.984,0.636,1.208,0.866,0.393,0.687,0.640,�k�k��,3.4,��
2020/06/21,08:50,0.690,0.985,0.634,1.209,0.867,0.394,0.688,0.641,�k��,3.3,��
2020/06/21,09:00,0.692,0.985,0.634,1.208,0.865,0.392,0.689,0.641,���k��,2.6,��
2020/06/21,09:10,0.689,0.983,0.635,1.207,0.866,0.393,0.689,0.641,���k��,2.5,��
2020/06/21,09:20,0.690,0.982,0.635,1.207,0.868,0.394,0.686,0.641,���k��,2.6,��
2020/06/21,09:30,0.691,0.984,0.635,1.208,0.866,0.394,0.687,0.642,���k��,2.5,��
2020/06/21,09:40,0.690,0.985,0.634,1.207,0.866,0.394,0.689,0.639,���k��,2.8,��
2020/06/21,09:50,0.690,0.985,0.634,1.207,0.866,0.394,0.687,0.641,���k��,2.9,��
2020/06/21,10:00,0.690,0.987,0.636,1.208,0.868,0.394,0.687,0.641,��,3.0,��
2020/06/21,10:10,0.693,0.986,0.633,1.208,0.867,0.394,0.688,0.639,��,2.6,��
2020/06/21,10:20,0.691,0.985,0.635,1.208,0.867,0.394,0.688,0.640,��,2.8,��
2020/06/21,10:30,0.691,0.987,0.636,1.207,0.867,0.395,0.688,0.642,��,3.6,��
2020/06/21,10:40,0.689,0.989,0.635,1.205,0.870,0.395,0.686,0.640,��,3.3,��
2020/06/21,10:50,0.691,0.988,0.636,1.208,0.869,0.395,0.687,0.642,���k��,3.0,��
2020/06/21,11:00,0.692,0.987,0.638,1.205,0.869,0.394,0.685,0.641,��,3.2,��
2020/06/21,11:10,0.690,0.989,0.636,1.204,0.870,0.394,0.688,0.642,���쓌,3.9,��
2020/06/21,11:20,0.691,0.987,0.636,1.205,0.871,0.394,0.687,0.640,���쓌,3.2,��
2020/06/21,11:30,0.692,0.987,0.636,1.205,0.869,0.395,0.686,0.641,���쓌,2.8,��
2020/06/21,11:40,0.691,0.987,0.637,1.205,0.870,0.395,0.689,0.642,��,3.4,��
2020/06/21,11:50,0.690,0.989,0.636,1.207,0.869,0.395,0.688,0.641,���쓌,4.3,��
2020/06/21,12:00,0.691,0.990,0.638,1.205,0.870,0.394,0.687,0.640,��,2.9,��
2020/06/21,12:10,0.693,0.992,0.636,1.207,0.870,0.394,0.688,0.641,��,3.0,��
2020/06/21,12:20,0.691,0.990,0.637,1.209,0.873,0.394,0.687,0.643,��,3.2,��
2020/06/21,12:30,0.692,0.991,0.636,1.208,0.871,0.395,0.688,0.642,���쓌,3.2,��
2020/06/21,12:40,0.691,0.991,0.637,1.206,0.872,0.397,0.688,0.642,���쓌,2.3,��
2020/06/21,12:50,0.690,0.993,0.638,1.208,0.871,0.394,0.688,0.642,��,3.0,��
2020/06/21,13:00,0.691,0.992,0.639,1.207,0.872,0.394,0.689,0.642,��,2.6,��
2020/06/21,13:10,0.693,0.994,0.637,1.206,0.874,0.397,0.689,0.641,���쓌,3.0,��
2020/06/21,13:20,0.694,0.992,0.637,1.210,0.872,0.394,0.687,0.642,���쓌,3.7,��
2020/06/21,13:30,0.691,0.992,0.638,1.207,0.873,0.395,0.689,0.643,���쓌,3.3,��
2020/06/21,13:40,0.692,0.994,0.637,1.206,0.871,0.395,0.688,0.643,���쓌,3.6,��
2020/06/21,13:50,0.694,0.994,0.639,1.210,0.874,0.395,0.688,0.642,���k��,3.2,��
2020/06/21,14:00,0.693,0.996,0.637,1.208,0.872,0.394,0.687,0.643,���쓌,2.9,��
2020/06/21,14:10,0.693,0.995,0.639,1.211,0.875,0.396,0.690,0.643,��,2.0,��
2020/06/21,14:20,0.694,0.995,0.639,1.208,0.873,0.394,0.690,0.642,���쓌,2.5,��
2020/06/21,14:30,0.693,0.995,0.637,1.209,0.873,0.394,0.688,0.642,���쓌,2.8,��
2020/06/21,14:40,0.693,0.996,0.638,1.207,0.873,0.393,0.691,0.642,�쓌,3.6,��
2020/06/21,14:50,0.692,0.994,0.640,1.209,0.873,0.396,0.689,0.642,���쓌,2.3,��
2020/06/21,15:00,0.694,0.992,0.638,1.209,0.874,0.394,0.691,0.644,�쓌,3.2,��
2020/06/21,15:10,0.693,0.995,0.638,1.208,0.877,0.395,0.690,0.642,�쓌,2.2,��
2020/06/21,15:20,0.695,0.994,0.641,1.210,0.876,0.396,0.688,0.642,���쓌,2.2,��
2020/06/21,15:30,0.693,0.994,0.639,1.210,0.874,0.396,0.689,0.643,�쓌,2.2,��
2020/06/21,15:40,0.693,0.994,0.639,1.208,0.875,0.396,0.690,0.643,���쓌,2.8,��
2020/06/21,15:50,0.693,0.997,0.640,1.210,0.874,0.394,0.690,0.643,���쓌,2.2,��
2020/06/21,16:00,0.691,0.996,0.639,1.207,0.874,0.396,0.688,0.642,��,3.1,��
2020/06/21,16:10,0.694,0.994,0.638,1.208,0.876,0.395,0.689,0.642,��,3.0,��
2020/06/21,16:20,0.694,0.997,0.639,1.211,0.875,0.395,0.690,0.643,���쓌,1.9,��
2020/06/21,16:30,0.694,0.995,0.639,1.210,0.875,0.396,0.689,0.642,���쓌,2.5,��
2020/06/21,16:40,0.693,0.994,0.640,1.209,0.874,0.396,0.690,0.643,�쓌,2.0,��
2020/06/21,16:50,0.694,0.996,0.639,1.211,0.874,0.395,0.689,0.642,���쓌,2.0,��
2020/06/21,17:00,0.692,0.995,0.639,1.211,0.875,0.394,0.688,0.642,���쓌,1.6,��
2020/06/21,17:10,0.693,0.996,0.639,1.211,0.874,0.395,0.690,0.643,�쓌,2.2,��
2020/06/21,17:20,0.692,0.996,0.639,1.212,0.876,0.396,0.690,0.643,�쓌,2.2,��
2020/06/21,17:30,0.692,0.997,0.640,1.213,0.875,0.396,0.689,0.642,�쓌,2.6,��
2020/06/21,17:40,0.692,0.995,0.638,1.212,0.875,0.395,0.691,0.640,��쓌,3.0,��
2020/06/21,17:50,0.693,0.997,0.640,1.211,0.876,0.395,0.689,0.642,��,2.3,��
2020/06/21,18:00,0.695,0.999,0.643,1.214,0.877,0.394,0.690,0.643,��쓌,3.4,��
2020/06/21,18:10,0.693,0.996,0.640,1.215,0.875,0.396,0.689,0.642,��쓌,3.0,��
2020/06/21,18:20,0.693,0.996,0.641,1.212,0.874,0.397,0.688,0.642,��쓌,3.7,��
2020/06/21,18:30,0.692,0.995,0.640,1.214,0.875,0.395,0.692,0.644,��쓌,2.5,��
2020/06/21,18:40,0.694,0.995,0.641,1.214,0.873,0.395,0.692,0.642,�쓌,2.3,��
2020/06/21,18:50,0.695,0.995,0.640,1.212,0.875,0.396,0.689,0.642,��쓌,2.6,��
2020/06/21,19:00,0.695,0.999,0.641,1.212,0.875,0.396,0.690,0.644,��쓌,2.6,��
2020/06/21,19:10,0.695,0.997,0.642,1.216,0.872,0.397,0.690,0.643,��,2.3,��
2020/06/21,19:20,0.695,0.996,0.641,1.213,0.873,0.398,0.692,0.645,��쓌,2.3,��
2020/06/21,19:30,0.695,0.998,0.641,1.213,0.875,0.397,0.688,0.643,��쓌,2.6,��
2020/06/21,19:40,0.695,0.997,0.642,1.213,0.874,0.396,0.691,0.643,��,2.0,��
2020/06/21,19:50,0.694,0.997,0.639,1.213,0.875,0.397,0.691,0.644,��,1.5,��
2020/06/21,20:00,0.697,0.997,0.643,1.212,0.872,0.398,0.690,0.644,�쓌,1.9,��
2020/06/21,20:10,0.696,0.999,0.641,1.214,0.875,0.397,0.689,0.645,���쓌,1.5,��
2020/06/21,20:20,0.697,0.998,0.642,1.215,0.875,0.398,0.692,0.645,�쓌,1.5,��
2020/06/21,20:30,0.696,0.998,0.641,1.216,0.875,0.397,0.691,0.645,�쓌,1.5,��
2020/06/21,20:40,0.695,0.997,0.641,1.214,0.877,0.399,0.691,0.644,�쓌,1.2,��
2020/06/21,20:50,0.698,0.999,0.641,1.213,0.875,0.399,0.691,0.645,�쓌,1.5,��
2020/06/21,21:00,0.695,0.998,0.640,1.214,0.877,0.399,0.690,0.643,���쓌,1.7,��
2020/06/21,21:10,0.697,0.997,0.642,1.215,0.877,0.397,0.692,0.643,-,CALM,��
2020/06/21,21:20,0.695,0.997,0.643,1.214,0.877,0.399,0.690,0.644,��,1.1,��
2020/06/21,21:30,0.695,0.999,0.646,1.212,0.876,0.398,0.690,0.645,���k��,1.2,��
2020/06/21,21:40,0.697,0.999,0.640,1.216,0.876,0.399,0.689,0.645,���쐼,0.6,��
2020/06/21,21:50,0.697,0.997,0.641,1.216,0.876,0.399,0.691,0.646,��,0.6,��
2020/06/21,22:00,0.696,0.997,0.642,1.215,0.875,0.397,0.690,0.643,�쐼,0.6,��
2020/06/21,22:10,0.697,0.998,0.642,1.215,0.876,0.397,0.691,0.645,-,CALM,��
2020/06/21,22:20,0.697,0.998,0.641,1.215,0.878,0.397,0.691,0.645,-,CALM,��
2020/06/21,22:30,0.696,0.996,0.642,1.216,0.879,0.399,0.692,0.644,-,CALM,��
2020/06/21,22:40,0.694,0.996,0.642,1.215,0.877,0.399,0.691,0.645,-,CALM,��
2020/06/21,22:50,0.696,1.001,0.642,1.215,0.878,0.398,0.691,0.644,��,0.6,��
2020/06/21,23:00,0.696,0.997,0.641,1.215,0.878,0.397,0.692,0.644,���k��,0.9,��
2020/06/21,23:10,0.695,0.997,0.642,1.215,0.878,0.399,0.689,0.645,���쓌,0.9,��
2020/06/21,23:20,0.695,0.998,0.641,1.215,0.878,0.398,0.690,0.645,-,CALM,��
2020/06/21,23:30,0.697,0.996,0.641,1.214,0.877,0.397,0.690,0.645,���쓌,0.8,��
2020/06/21,23:40,0.697,0.997,0.642,1.215,0.878,0.400,0.693,0.643,-,CALM,��
2020/06/21,23:50,0.695,0.996,0.641,1.217,0.880,0.399,0.691,0.646,��쐼,0.9,��
